CDT,Max TemperatureF,Mean TemperatureF,Min TemperatureF,Max Dew PointF,MeanDew PointF,Min DewpointF,Max Humidity, Mean Humidity, Min Humidity, Max Sea Level PressureIn, Mean Sea Level PressureIn, Min Sea Level PressureIn, Max VisibilityMiles, Mean VisibilityMiles, Min VisibilityMiles, Max Wind SpeedMPH, Mean Wind SpeedMPH, Max Gust SpeedMPH,PrecipitationIn, CloudCover, Events, WindDirDegrees
2012-8-1,106,93,79,62,54,47,54,35,15,29.93,29.87,29.79,10,10,10,16,8,24,0.00,0,,187
2012-8-2,107,92,76,62,52,44,54,33,12,29.85,29.79,29.71,10,10,10,18,10,26,0.00,0,,185
2012-8-3,107,94,80,65,56,50,58,37,15,29.83,29.77,29.69,10,10,10,21,12,25,0.00,0,,179
2012-8-4,103,90,77,64,57,52,58,38,18,29.93,29.85,29.80,10,10,10,20,10,25,0.00,0,,161
2012-8-5,101,89,77,65,59,50,62,41,19,30.15,30.01,29.95,10,10,10,18,9,29,0.00,0,,129
2012-8-6,103,88,73,63,58,53,64,42,20,30.09,30.01,29.90,10,10,10,18,7,24,0.00,0,,110
2012-8-7,104,90,75,61,55,47,54,35,15,29.97,29.91,29.83,10,10,10,17,7,22,0.00,0,,145
2012-8-8,101,89,77,68,61,55,62,43,24,30.00,29.94,29.88,10,10,10,28,6,36,0.02,0,Rain-Thunderstorm,155
2012-8-9,102,87,72,65,61,53,69,45,21,29.99,29.92,29.84,10,10,10,22,5,25,0.00,1,,203
2012-8-10,105,88,71,62,54,41,66,40,13,29.96,29.90,29.83,10,10,10,21,7,25,0.00,0,,99
2012-8-11,104,85,65,57,51,46,46,32,17,30.04,29.90,29.81,10,10,10,17,7,23,0.00,0,,75
2012-8-12,107,91,75,66,57,52,50,34,18,30.05,29.88,29.77,10,10,4,37,9,45,0.39,2,Rain-Thunderstorm,179
2012-8-13,97,87,76,65,61,56,64,46,27,30.13,29.95,29.89,10,10,10,23,8,30,0.02,1,Rain,67
2012-8-14,103,88,73,65,59,54,69,45,21,29.95,29.86,29.75,10,10,10,18,9,24,0.00,0,,185
2012-8-15,102,89,75,62,57,51,60,40,19,29.87,29.80,29.72,10,10,10,20,9,26,0.00,0,,166
2012-8-16,102,89,76,63,57,45,56,37,17,29.94,29.87,29.81,10,10,10,20,8,26,0.00,1,,136
2012-8-17,100,87,74,68,62,54,84,57,29,30.03,29.93,29.85,10,10,10,18,10,23,0.05,2,Rain-Thunderstorm,169
2012-8-18,88,80,72,70,67,65,84,67,50,29.99,29.89,29.76,10,10,10,20,6,24,0.07,4,Rain-Thunderstorm,180
2012-8-19,92,81,70,68,65,61,90,63,36,30.04,29.93,29.86,10,10,10,20,6,25,0.00,2,,69
2012-8-20,98,83,68,65,61,54,79,52,24,30.05,29.93,29.81,10,10,10,12,4,20,0.00,1,,190
2012-8-21,84,77,70,63,59,55,73,58,42,29.99,29.93,29.88,10,10,10,21,12,25,T,4,,73
2012-8-22,94,80,65,64,60,57,81,56,30,30.10,29.99,29.89,10,10,10,20,10,25,0.00,1,,114
2012-8-23,97,86,74,64,60,57,68,48,28,29.98,29.91,29.82,10,10,10,20,10,28,0.00,1,,160
2012-8-24,98,87,75,67,61,57,64,46,27,29.86,29.80,29.71,10,10,10,18,10,25,0.01,3,,174
2012-8-25,99,90,80,63,61,57,54,42,29,29.82,29.76,29.70,10,10,2,24,11,30,T,1,Rain,171
2012-8-26,97,85,73,70,63,57,69,48,27,30.08,29.93,29.81,10,10,10,25,9,32,0.17,3,Rain-Thunderstorm,151
2012-8-27,91,81,71,70,68,64,90,67,44,30.11,30.03,29.97,10,10,10,23,4,26,0.04,3,Rain-Thunderstorm,57
2012-8-28,94,81,67,69,65,61,90,63,36,30.03,29.96,29.88,10,10,10,22,7,30,T,1,,359
2012-8-29,96,82,68,67,55,42,79,48,17,30.01,29.88,29.79,10,10,10,18,6,30,0.00,0,,33
2012-8-30,96,80,63,56,52,50,67,45,23,29.89,29.83,29.76,10,10,10,13,5,21,0.00,0,,314
2012-8-31,100,83,65,59,54,48,78,48,18,29.94,29.88,29.84,10,10,10,12,4,17,0.00,0,,157